Regional Weather Roundup
Issued by NWS Huntsville, AL

Home | Current Version | Previous Version | Text Only | Print | Product List | Glossary On
Versions: 1 2 3 4 5 6 7 8 9 10 11 12 13 14 15 16 17 18 19 20 21 22 23 24 25 26
000
ASUS44 KHUN 120910
RWRHUN

WEATHER ROUNDUP FOR THE TENNESSEE VALLEY
NATIONAL WEATHER SERVICE HUNTSVILLE AL
300 AM CST TUE DEC 12 2017

ALZ001>004-121000-
NORTHWEST ALABAMA

CITY           SKY/WX    TMP DP  RH WIND       PRES   REMARKS
COURTLAND HCN    N/A     46 N/A N/A NW6         N/A
RUSSELLVILLE     N/A     41 N/A N/A MISG        N/A
SHOALS AIRPORT PTCLDY    49  26  41 NW5       29.97R
SHOALS TVA RES   N/A     48 N/A N/A MISG        N/A
$$

ALZ005>007-016-121000-
NORTH CENTRAL ALABAMA

CITY           SKY/WX    TMP DP  RH WIND       PRES   REMARKS
CULLMAN AG STN   N/A     46 N/A N/A CALM        N/A
DECATUR AP     CLOUDY    45  32  60 NW5       29.94S
HUNTSVILLE AP  PTCLDY    44  33  65 W5        29.92S
MERIDIANVILLE  CLOUDY    45  30  57 NW6       29.92R
REDSTONE ARSN  CLOUDY    46  32  58 CALM      29.91S
VINEMONT AP    FAIR      46  30  54 NW6       29.94S
$$

ALZ008>010-121000-
NORTHEAST ALABAMA

CITY           SKY/WX    TMP DP  RH WIND       PRES   REMARKS
ALBERTVILLE    PTCLDY    45  36  70 NW6       29.89S
FORT PAYNE     PTCLDY    30  28  93 CALM      29.89R
SCOTTSBORO AP  PTCLDY    39  34  81 CALM      29.90S
SCOTTSBORO HCN   N/A     34 N/A N/A MISG        N/A
VALLEY HEAD      N/A     30 N/A N/A MISG        N/A
$$

TNZ076-096-097-121000-
SOUTHEASTERN MIDDLE TENNESSEE

CITY           SKY/WX    TMP DP  RH WIND       PRES   REMARKS
TULLAHOMA      PTCLDY    43  28  56 NW5       29.90S
WINCHESTER     CLEAR     45  30  57 NW3       29.90S
$$

...SURROUNDING SITES...

CITY           SKY/WX    TMP DP  RH WIND       PRES   REMARKS
ATLANTA        MOCLDY    44  37  76 SW6       29.87F
ANNISTON       MOCLDY    45  37  73 W7        29.91S
BIRMINGHAM     PTCLDY    47  35  63 W7        29.95S
CHATTANOOGA    PTCLDY    39  32  76 CALM      29.87S
CORINTH        FAIR      46  28  49 NW9       29.99R
DALTON         PTCLDY    34  32  93 CALM      29.89S
GADSDEN        CLOUDY    45  35  68 W7        29.91S
GOLDEN TRNGL   NOT AVBL
HALEYVILLE     FAIR      44  31  60 NW6       29.96S
JACKSON TN     CLOUDY    49  33  54 NW13G25   30.02R
MEMPHIS        CLEAR     48  31  51 NW14G22   30.05R
NASHVILLE      CLOUDY    47  30  51 N13       29.93R
OXFORD MS      FAIR      46  25  42 NW8       30.04R
ROME           PTCLDY    33  32  96 CALM      29.87F
SAVANNAH       MOCLDY    46  28  49 NW6       29.97R
SELMER         PTCLDY    46  28  49 VRB3      29.98R
TUPELO         MOCLDY    50  25  37 NW9       30.00R
TUSCALOOSA     PTCLDY    37  35  92 CALM      29.97R
$$

...GULF COAST WEATHER...

CITY           SKY/WX    TMP DP  RH WIND       PRES   REMARKS
GULFPORT       CLEAR     50  46  86 W6        30.05F
PASCAGOULA     CLEAR     48  45  89 VRB3      30.05F
MOBILE         CLEAR     49  43  80 SW8       30.04S
GULF SHORES    SUNNY     50  45  83 W7        30.05S
PENSACOLA      CLEAR     54  44  69 W7        30.03F
DESTIN         CLEAR     62  43  49 W10G18    30.01F
PANAMA CITY    CLEAR     63  50  63 W14       30.01F
APPALACHICOLA  CLEAR     55  52  89 W8        30.02F
$$





USA.gov is the U.S. government's official web portal to all federal, state and local government web resources and services.